TimeEDT,TemperatureF,Dew PointF,Humidity,Sea Level PressureIn,VisibilityMPH,Wind Direction,Wind SpeedMPH,Gust SpeedMPH,PrecipitationIn,Events,Conditions,WindDirDegrees,DateUTC
12:53 AM,70.0,64.0,81,29.92,10.0,SSE,3.5,-,N/A,,Mostly Cloudy,160,2013-08-07 04:53:00
1:53 AM,69.1,64.0,84,29.90,10.0,SSE,4.6,-,N/A,,Overcast,160,2013-08-07 05:53:00
2:53 AM,69.1,64.0,84,29.90,10.0,South,3.5,-,N/A,,Overcast,180,2013-08-07 06:53:00
3:53 AM,66.9,63.0,87,29.89,8.0,South,4.6,-,N/A,,Mostly Cloudy,180,2013-08-07 07:53:00
4:53 AM,66.9,64.0,90,29.87,8.0,South,9.2,-,N/A,,Overcast,170,2013-08-07 08:53:00
5:53 AM,66.9,64.9,93,29.87,8.0,South,6.9,-,N/A,,Overcast,190,2013-08-07 09:53:00
6:09 AM,68.0,64.4,88,29.89,6.0,South,6.9,-,N/A,,Overcast,190,2013-08-07 10:09:00
6:42 AM,68.0,64.4,88,29.88,6.0,South,4.6,-,N/A,,Mostly Cloudy,170,2013-08-07 10:42:00
6:53 AM,66.9,64.9,93,29.87,5.0,South,3.5,-,N/A,,Mostly Cloudy,170,2013-08-07 10:53:00
7:53 AM,69.1,66.0,90,29.90,6.0,South,4.6,-,N/A,,Mostly Cloudy,180,2013-08-07 11:53:00
8:36 AM,69.8,64.4,83,29.92,6.0,North,5.8,-,N/A,,Haze,10,2013-08-07 12:36:00
8:53 AM,70.0,63.0,78,29.91,10.0,North,4.6,-,N/A,,Overcast,360,2013-08-07 12:53:00
9:53 AM,72.0,62.1,71,29.91,10.0,Calm,Calm,-,0.00,Rain,Light Rain,0,2013-08-07 13:53:00
10:53 AM,73.0,63.0,71,29.92,10.0,Calm,Calm,-,0.00,,Overcast,0,2013-08-07 14:53:00
11:53 AM,71.1,63.0,75,29.90,9.0,South,11.5,-,0.00,Rain,Light Rain,190,2013-08-07 15:53:00
12:01 PM,69.8,64.4,83,29.89,10.0,South,13.8,-,0.00,Rain-Thunderstorm,Light Thunderstorms and Rain,170,2013-08-07 16:01:00
12:23 PM,69.8,64.4,83,29.86,10.0,SSE,10.4,21.9,0.01,Rain,Light Rain,150,2013-08-07 16:23:00
12:53 PM,71.1,64.9,81,29.86,10.0,SSE,5.8,-,0.01,,Mostly Cloudy,150,2013-08-07 16:53:00
1:53 PM,75.9,66.9,74,29.86,10.0,South,8.1,-,N/A,,Mostly Cloudy,180,2013-08-07 17:53:00
2:53 PM,79.0,66.9,66,29.87,10.0,South,6.9,-,N/A,,Mostly Cloudy,180,2013-08-07 18:53:00
3:53 PM,84.0,66.0,55,29.86,10.0,SW,11.5,-,N/A,,Mostly Cloudy,220,2013-08-07 19:53:00
4:53 PM,84.0,66.0,55,29.85,10.0,SW,15.0,-,N/A,,Mostly Cloudy,220,2013-08-07 20:53:00
5:53 PM,84.0,69.1,61,29.85,10.0,SSW,13.8,-,N/A,,Mostly Cloudy,200,2013-08-07 21:53:00
6:53 PM,82.9,70.0,65,29.84,10.0,SSW,16.1,-,N/A,,Scattered Clouds,200,2013-08-07 22:53:00
7:53 PM,81.0,70.0,69,29.85,10.0,SSW,12.7,-,N/A,,Scattered Clouds,200,2013-08-07 23:53:00
8:53 PM,78.1,71.1,79,29.86,10.0,South,8.1,-,N/A,,Scattered Clouds,170,2013-08-08 00:53:00
9:53 PM,75.9,71.1,85,29.88,10.0,South,5.8,-,N/A,,Partly Cloudy,170,2013-08-08 01:53:00
10:53 PM,75.9,71.1,85,29.90,9.0,South,4.6,-,N/A,,Partly Cloudy,180,2013-08-08 02:53:00
11:53 PM,75.0,71.1,87,29.90,8.0,Calm,Calm,-,N/A,,Partly Cloudy,0,2013-08-08 03:53:00